Regional Weather Roundup
Issued by NWS

Home | Current Version | Previous Version | Text Only | Print | Product List | Glossary On
Versions: 1 2 3 4 5 6 7 8 9 10 11 12 13 14 15 16 17 18 19 20 21 22 23 24 25 26 27 28 29 30 31 32 33 34 35 36 37 38 39 40 41 42 43 44 45 46 47 48 49 50
000
ASUS43 KMPX 261310
RWRMN
WEATHER ROUNDUP FOR MINNESOTA
NATIONAL WEATHER SERVICE TWIN CITIES/CHANHASSEN MN
800 AM CDT FRI AUG 26 2016


NOTE: "FAIR" INDICATES FEW OR NO CLOUDS BELOW 12,000 FEET WITH NO
SIGNIFICANT WEATHER AND/OR OBSTRUCTIONS TO VISIBILITY. N/A MEANS
CURRENT SKY AND/OR WEATHER CONDITIONS ARE NOT AVAILABLE.

MNZ060>063-068>070-261400-
   Twin Cities Metro

CITY           SKY/WX    TMP DP  RH WIND       PRES   REMARKS
TWIN CITIES    SUNNY     59  54  83 SW5       30.18R
ST PAUL        SUNNY     60  56  86 CALM      30.18R
CRYSTAL        SUNNY     59  54  83 CALM      30.17R
BLAINE         MOSUNNY   59  59 100 CALM      30.17R
LAKEVILLE      SUNNY     55  55 100 CALM      30.18S
EDEN PRAIRIE   MOSUNNY   57  55  93 SW5       30.17R FOG
LAKEVILLE      SUNNY     55  55 100 CALM      30.18S
SOUTH ST PAUL  SUNNY     59  56  90 CALM      30.18R
LAKE ELMO      FAIR      57  55  94 SE3       30.19R
$$
MNZ001>005-007-008-013>017-022>024-027-028-261400-
   Northwest Minnesota

CITY           SKY/WX    TMP DP  RH WIND       PRES   REMARKS
BEMIDJI        SUNNY     51  50  95 SW3       30.12S
HALLOCK        SUNNY     48  46  93 S6        30.06S
ROSEAU         SUNNY     50  45  81 S5        30.07F
WARROAD        SUNNY     50  46  87 CALM      30.08F
THIEF RVR FALL SUNNY     51  49  92 S5        30.10S
CROOKSTON      SUNNY     48  48 100 S6        30.09S
FOSSTON        SUNNY     52  50  93 S5        30.12S
DETROIT LAKES  SUNNY     55  52  88 SW5       30.14S
MOORHEAD       SUNNY     52  50  93 S5        30.13R
PARK RAPIDS    SUNNY     55  51  86 CALM      30.13S
MAHNOMEN       FAIR      52  49  92 S6        30.12S
$$
MNZ006-009>011-018-025>026-261400-
   North Central Minnesota

CITY           SKY/WX    TMP DP  RH WIND       PRES   REMARKS
BAUDETTE       SUNNY     50  48  93 S5        30.09R
FLAG ISLAND    SUNNY     57  48  72 CALM      30.06S
INTL FALLS     SUNNY     49  48  97 VRB3      30.11R
WASKISH        SUNNY     52  50  93 CALM      30.10S
BIG FORK       SUNNY     50  48  93 CALM      30.13S
LONGVILLE      SUNNY     50  50 100 CALM      30.12F
GRAND RAPIDS   SUNNY     53  52  96 CALM      30.15S
CRANE LAKE     SUNNY     45  43  93 S1        30.14R
ORR            SUNNY     50  46  87 CALM      30.11R
COOK           MOSUNNY   52  52 100 CALM      30.14R
WALKER         FAIR      52  51  96 CALM      30.12S
$$
MNZ012-019>021-037-261400-
   Northeast Minnesota

CITY           SKY/WX    TMP DP  RH WIND       PRES   REMARKS
DULUTH         MOSUNNY   58  53  84 NW6       30.14R
ELY            SUNNY     52  50  93 CALM      30.13S
HIBBING        SUNNY     53  51  93 CALM      30.14S
EVELETH        SUNNY     58  55  91 W3        30.14S
DULUTH HARBOR  SUNNY     61  55  82 W8        30.14R
TWO HARBORS    SUNNY     61  55  82 W3        30.11R
SILVER BAY     SUNNY     59  54  82 CALM      30.11R
GRAND MARAIS     N/A     56  51  84 VRB5      30.11R
G MARAIS ARPRT SUNNY     54  45  71 NW3       30.12R
$$
MNZ029>031-032-039>041-046>048-054>057-064-261400-
   West Central Minnesota

CITY           SKY/WX    TMP DP  RH WIND       PRES   REMARKS
FERGUS FALLS   SUNNY     54  54 100 SE3       30.16S
WHEATON        SUNNY     52  52 100 S2        30.17R
MORRIS         SUNNY     52  52 100 CALM      30.16R
ALEXANDRIA     SUNNY     56  54  93 CALM      30.17S
ELBOW LAKE     FAIR      53  53 100 S6        30.16S
GLENWOOD       SUNNY     54  54 100 CALM      30.17S
APPLETON       SUNNY     54  52  94 CALM      30.16S
BENSON         SUNNY     52  48  87 CALM      30.17S
ORTONVILLE     SUNNY     54  52  94 CALM      30.17R
MADISON        SUNNY     54  52  94 CALM      30.17S
WILLMAR        FAIR      52  52 100 CALM      30.19R FOG
$$
MNZ033>034-036-042>043-049>051-058-059-261400-
   Central Minnesota

CITY           SKY/WX    TMP DP  RH WIND       PRES   REMARKS
ST CLOUD       SUNNY     56  55  97 CALM      30.16R
SAUK CENTRE    FAIR      51  51 100 CALM      30.17S
PAYNESVILLE    SUNNY     53  53 100 CALM      30.18S
AITKIN         SUNNY     55  52  88 CALM      30.14R
PINE RIVER     SUNNY     50  50 100 CALM      30.17S
BRAINERD       SUNNY     54  54 100 S5        30.15S
STAPLES        SUNNY     52  52 100 S3        30.15S
LONG PRAIRIE   FAIR      52  52 100 CALM      30.16S
LITTLE FALLS   SUNNY     52  50  93 CALM      30.16S
LITCHFIELD     SUNNY     57  55  94 CALM      30.18R
BUFFALO        SUNNY     56  54  93 CALM      30.19R
MAPLE LAKE     SUNNY     58  57  97 CALM      30.19R
HUTCHINSON     SUNNY     54  54 100 CALM      30.20R
$$
MNZ037-044-045-052-053-261400-
   East Central Minnesota

CITY           SKY/WX    TMP DP  RH WIND       PRES   REMARKS
PRINCETON        N/A     54  54 100 CALM      30.17R
MORA           SUNNY     54  52  94 CALM      30.17S
CAMBRIDGE      SUNNY     57  54  88 CALM      30.15R
RUSH CITY      SUNNY     56  55  96 W5        30.17R
MOOSE LAKE     SUNNY     52  50  93 CALM      30.14R
HINCKLEY       FAIR      54  54 100 CALM      30.16R
CLOQUET        SUNNY     55  50  82 NW5       30.14S
MCGREGOR       SUNNY     52  50  93 CALM      30.15S
$$
MNZ071>073-080-081-089-090-097-098-261400-
   Southwest Minnesota

CITY           SKY/WX    TMP DP  RH WIND       PRES   REMARKS
MONTEVIDEO     SUNNY     55  55 100 CALM      30.19S
GRANITE FALLS  SUNNY     53  52  98 S3        30.20R
CANBY          SUNNY     56  53  91 W3        30.19S
MARSHALL       CLOUDY    54  51  90 CALM      30.19R
REDWOOD FALLS  SUNNY     54  52  93 CALM      30.19R
OLIVIA         SUNNY     52  50  93 CALM      30.18R
PIPESTONE      CLOUDY    54  52  94 E2        30.20R
WINDOM         CLOUDY    55  54  94 CALM      30.21R
WORTHINGTON    CLOUDY    53  52  96 CALM      30.22R
JACKSON        CLOUDY    55  54  94 CALM      30.21S
TRACY          CLOUDY    55  53  92 SW3       30.20S
SLAYTON        CLOUDY    52  52 100 CALM      30.21S
$$
MNZ065>067-074>077-082>085-091>093-261400-
   South Central Minnesota

CITY           SKY/WX    TMP DP  RH WIND       PRES   REMARKS
MANKATO        CLOUDY    55  52  88 CALM      30.20R
NEW ULM          N/A     54  54 100 CALM      30.19S
FAIRMONT       CLOUDY    56  55  97 CALM      30.21R
GLENCOE        SUNNY     55  55 100 CALM      30.18R
FARIBAULT      MOSUNNY   57  55  94 CALM      30.19S
OWATONNA       SUNNY     57  55  94 CALM      30.20R
WASECA         CLOUDY    54  54 100 CALM      30.22R
ALBERT LEA     CLOUDY    57  57 100 CALM      30.21R
$$
MNZ078>079-086>088-094>096-261400-
   Southeast Minnesota

CITY           SKY/WX    TMP DP  RH WIND       PRES   REMARKS
ROCHESTER      SUNNY     56  56 100 CALM      30.21R
RED WING       SUNNY     57  55  94 CALM      30.17S
STANTON        SUNNY     55  54  94 CALM      30.18R
DODGE CENTER   SUNNY     57  54  88 CALM      30.21R
WINONA         SUNNY     59  55  88 CALM      30.20R
AUSTIN         MOSUNNY   55  54  94 CALM      30.20S
PRESTON        SUNNY     57  53  86 NW3       30.21R
$$
ABBREVIATIONS USED IN REMARKS
   TC - TEMPERATURES IN CELSIUS
  WCI - WIND CHILL INDEX
   HX - HEAT INDEX
  VSB - VISIBILITY
$$




USA.gov is the U.S. government's official web portal to all federal, state and local government web resources and services.